Location: Adelaide
(34.9285°S, 138.6007°E)
Time: 13:30:50
(UTC+10:30)

Envisat - Visible Passes

Search period start: 17 November 2019 00:00
Search period end: 27 November 2019 00:00
Orbit: 764 x 766 km, 98.1° (Epoch: 16 November)

Date Brightness Start Highest point End Pass type
(mag) Time Alt. Az. Time Alt. Az. Time Alt. Az.
17 Nov 3.5 20:18:06 10° S 20:23:14 70° WSW 20:28:18 10° NNW visible
18 Nov 6.0 21:21:45 10° SSW 21:25:02 17° WSW 21:28:17 10° WNW visible
19 Nov 4.7 20:43:52 10° S 20:48:36 38° WSW 20:53:17 10° NW visible
21 Nov 5.7 21:10:02 10° SSW 21:13:53 22° WSW 21:17:43 10° WNW visible
22 Nov 4.2 20:32:26 10° S 20:37:24 49° WSW 20:42:17 10° NNW visible
23 Nov 6.3 21:37:05 10° SW 21:39:03 12° WSW 21:41:02 10° W visible
24 Nov 5.4 20:58:25 10° SSW 21:02:43 27° WSW 21:06:59 10° NW visible
26 Nov 6.0 21:24:57 10° SSW 21:27:56 16° WSW 21:30:54 10° W visible
